Location: *
(50.9167°S, 179.0167°W)
Time: 10:09:31
(UTC+00:00)

Daily predictions for brighter satellites

Satellite Brightness Start Highest point End
(mag) Time Altitude Azimuth Time Altitude Azimuth Time Altitude Azimuth
Cosmos 1892 2.6 12:01:36 10° SSW 12:05:16 66° W 12:06:37 35° NNW
MOS 1 Rocket 4.0 12:00:03 10° S 12:05:19 57° WSW 12:08:44 20° NW
Cosmos 1455 2.5 12:06:46 31° NNE 12:08:11 52° E 12:11:46 10° SSE
Cosmos 371 Rocket 3.5 12:07:50 22° NW 12:11:00 69° WSW 12:15:57 10° SSE
Cosmos 1315 Rocket 3.6 12:07:25 10° SSW 12:11:16 40° W 12:12:56 27° NW
SL-8 R/B 3.7 12:06:50 10° WNW 12:11:38 60° N 12:16:26 10° E
Cosmos 923 Rocket 4.1 12:06:29 10° SSW 12:11:49 77° ESE 12:15:45 19° NNE
USA 307 3.1 12:10:35 10° WSW 12:12:50 35° S 12:14:58 10° ESE
Cosmos 2219 Rocket 2.4 12:08:55 10° SSW 12:14:35 72° ESE 12:19:40 13° NE
Cosmos 2082 Rocket 4.0 12:10:12 10° WNW 12:15:11 29° SW 12:20:13 10° SSE
Cosmos 2360 Rocket 2.3 12:10:27 10° SW 12:16:07 64° WNW 12:19:37 23° N
GENESIS II 4.2 12:12:50 10° SW 12:16:30 70° SE 12:19:22 16° NE
ATLAS 5 CENTAUR R/B 2.8 12:11:37 10° SW 12:17:52 57° SE 12:22:52 10° ENE
ATLAS 3B R/B 4.4 12:15:33 10° W 12:17:58 12° WNW 12:20:12 10° NW
Cosmos 1242 Rocket 4.4 12:15:27 10° SSE 12:18:08 22° ESE 12:20:37 11° ENE
Timation 1 Rocket 4.5 12:16:04 24° N 12:19:43 66° ENE 12:25:42 10° SE
SL-27 R/B 3.4 12:20:59 25° NE 12:21:45 29° ENE 12:24:33 10° SE
In-Cosmos 22 Rocket 4.3 12:16:50 10° S 12:22:43 82° ESE 12:26:40 21° NNE
Cosmos 1680 Rocket 3.7 12:18:54 10° SSW 12:24:18 75° ESE 12:28:41 16° NNE
Helios 1A Rocket 4.4 12:23:23 10° SE 12:26:46 26° E 12:28:51 17° NE
Cosmos 2084 3.6 12:24:50 25° NNW 12:27:29 74° NE 12:32:18 10° SE
Cosmos 2100 Rocket 4.3 12:23:27 10° S 12:29:42 67° ESE 12:34:43 16° NNE
USA 306 3.2 12:26:47 10° WSW 12:30:02 52° S 12:33:35 10° E
Resurs 1-4 Rocket 2.2 12:27:37 18° NNE 12:31:34 76° ESE 12:36:55 10° SSW
Cosmos 1782 Rocket 4.3 12:30:08 22° NW 12:32:44 46° WSW 12:37:08 10° S
ALOS 4.4 12:32:52 10° ENE 12:36:35 24° ESE 12:40:20 10° S
Cosmos 1459 Rocket 4.3 12:31:08 10° S 12:37:37 70° ESE 12:42:53 16° NNE
MSX 3.9 12:36:05 16° NNE 12:40:44 80° ESE 12:46:35 10° SSW
Cosmos 2112 Rocket 4.1 12:35:25 10° SSW 12:40:51 85° ESE 12:45:21 15° NNE
Cosmos 2322 Rocket 3.1 12:36:03 10° SW 12:41:02 33° WNW 12:43:43 22° NNW
Meteor 1-4 Rocket 3.0 12:42:52 10° SSW 12:45:57 38° W 12:46:53 30° NW
Cosmos 1975 Rocket 4.1 12:42:29 10° SSW 12:46:29 33° W 12:48:35 22° NW
Cosmos 1802 Rocket 4.4 12:40:15 10° S 12:46:38 65° ESE 12:52:14 13° NNE
AQUA 4.4 12:44:52 12° NE 12:49:08 57° ESE 12:53:52 10° S
Cosmos 1825 3.4 12:48:17 10° SSW 12:51:20 26° W 12:52:36 21° WNW
ALOS 2 3.0 12:53:07 10° S 12:57:31 57° WSW 13:00:16 22° NW
SAR-Lupe-4 4.0 12:57:35 28° NNW 12:59:08 48° W 13:02:42 10° SSW
NPP 3.8 12:56:29 21° N 13:00:09 63° WNW 13:05:37 10° SSW
Cosmos 2297 Rocket 4.0 13:01:24 10° NNE 13:05:34 21° E 13:09:45 10° SE
Cosmos 1536 Rocket 3.6 13:01:36 10° SSW 13:06:08 69° W 13:08:59 22° N
Okean 1 Rocket 3.4 13:05:24 20° N 13:08:25 60° E 13:12:51 10° SSE
SL-16 R/B 4.1 13:08:40 10° WSW 13:11:18 13° W 13:13:30 11° WNW
Cosmos 921 Rocket 3.1 13:07:56 10° SSW 13:12:05 54° WNW 13:14:38 22° N
ISS -3.8 13:11:33 10° WSW 13:14:59 78° NNW 13:18:25 10° ENE
Cosmos 494 Rocket 4.3 13:11:16 10° SSW 13:16:32 68° ESE 13:21:42 10° NNE
Cosmos 1953 4.5 13:14:13 10° WNW 13:16:55 17° WSW 13:19:39 10° SSW
Sich 1 Rocket 3.9 13:16:35 21° NNW 13:19:36 64° WSW 13:24:15 10° S
Cosmos 372 Rocket 4.1 13:16:42 19° NW 13:20:22 69° WSW 13:25:32 10° SSE
Cosmos 2061 Rocket 4.2 13:14:16 10° S 13:20:35 73° ESE 13:26:51 10° NNE
CZ-4 R/B 4.4 13:16:10 10° NNE 13:20:44 56° ESE 13:25:24 10° S
Okean 2 Rocket 3.3 13:18:31 21° NNW 13:21:23 64° WSW 13:25:51 10° S
IDEFIX/ARIANE 42P 3.1 13:18:05 20° NNW 13:21:33 46° W 13:26:42 10° SSW
COSMOS 2428 2.7 13:16:28 10° SSW 13:22:12 72° WNW 13:27:52 10° NNE
Cosmos 2333 Rocket 3.4 13:18:23 10° SW 13:23:02 26° WNW 13:25:55 18° NW
CZ-2D R/B 2.7 13:20:21 19° NNW 13:24:05 46° W 13:29:27 10° SSW
USA 305 2.6 13:22:28 10° WSW 13:24:24 36° SSE 13:26:11 10° E
Cosmos 2016 Rocket 4.1 13:20:46 10° SSW 13:27:16 82° W 13:33:06 13° N
ADEOS II 2.2 13:24:48 16° N 13:28:57 61° WNW 13:34:15 10° SSW
CZ-2C R/B 3.6 13:24:56 10° NNE 13:30:44 72° ESE 13:36:37 10° S
Cosmos 2237 Rocket 2.7 13:25:20 10° SSW 13:31:05 63° SE 13:36:46 10° NE
CZ-2C R/B 3.9 13:31:49 10° NE 13:36:25 37° ESE 13:40:55 10° S
Cosmos 1937 Rocket 4.0 13:33:30 16° NW 13:37:34 53° WSW 13:42:42 10° SSE
USA 276 3.9 13:38:41 16° NNE 13:39:26 17° NE 13:41:32 10° ENE
IRIDIUM 103 4.5 13:35:59 10° S 13:41:20 81° E 13:46:34 10° N
Cosmos 2233 Rocket 4.1 13:35:51 10° S 13:42:17 88° E 13:48:35 10° N
Cosmos 1461 3.3 13:38:43 10° SW 13:42:47 45° WNW 13:46:57 10° NNE
BREEZE M DEB (TANK) 2.0 13:41:16 10° W 13:43:22 50° N 13:46:33 10° ENE
Cosmos 1455 4.4 13:41:10 10° WNW 13:43:22 15° WSW 13:45:34 10° SSW
Cosmos 1455 Rocket 3.5 13:41:15 13° N 13:45:04 58° E 13:49:25 10° SSE
Cosmos 2123 Rocket 4.1 13:40:53 16° NNW 13:46:02 72° WSW 13:52:19 10° S
USA 215 3.4 13:40:57 10° NE 13:47:24 56° NW 13:53:55 10° WSW
USA 307 1.3 13:46:01 10° WSW 13:48:17 74° SSE 13:50:26 10° ENE
Cosmos 2322 4.3 13:44:14 10° SW 13:49:34 38° WNW 13:54:18 12° N
Cosmos 1242 Rocket 3.6 13:48:46 10° SW 13:51:35 26° W 13:53:12 18° NW
SL-8 R/B 3.7 13:49:06 10° W 13:53:55 62° N 13:58:42 10° ENE
Cosmos 2058 4.1 13:50:06 10° S 13:54:05 42° ESE 13:58:02 10° NE
SL-27 R/B 4.1 13:53:19 11° WNW 13:55:39 21° SW 13:58:10 10° S
Cosmos 2219 Rocket 3.5 13:53:41 10° SW 13:57:59 23° WNW 14:01:19 14° NW
Cosmos 2360 Rocket 4.2 13:57:17 10° WSW 13:58:58 11° W 14:00:38 10° WNW
IRIDIUM 106 4.4 13:54:20 10° S 13:59:39 74° W 14:04:52 10° N
Meteor 2-15 Rocket 4.5 13:54:35 10° SSW 14:00:47 81° W 14:06:56 10° N
Helios 1A Rocket 3.9 13:57:50 10° S 14:01:26 34° WSW 14:04:30 13° NW
ATLAS 5 CENTAUR R/B 2.6 13:56:33 10° SW 14:01:49 36° WNW 14:06:09 10° N
Cosmos 2227 Rocket 3.6 13:57:20 10° NNE 14:02:18 32° ENE 14:07:19 10° SE
USA 306 2.4 14:02:00 10° WSW 14:05:28 65° NNW 14:09:12 10° NE
Cosmos 1346 Rocket 3.2 14:02:52 15° NW 14:05:55 49° WSW 14:09:48 10° S
NOSS 3-4 (A) 4.1 13:59:46 10° SW 14:07:14 71° SE 14:13:36 10° NE
NOSS 3-4 (C) 4.1 13:59:43 10° SW 14:07:15 71° SE 14:13:43 10° NE
Thor Agena Rocket 3.6 14:02:35 10° N 14:07:48 75° WNW 14:13:09 10° SSW
Cosmos 2285 Rocket 4.3 14:02:33 10° SSW 14:08:57 74° ESE 14:15:17 10° NNE
Cosmos 44 4.1 14:06:04 10° SSW 14:10:17 50° SE 14:14:37 10° ENE
Resurs 1-4 Rocket 3.7 14:08:41 11° NW 14:11:59 19° W 14:15:42 10° SW
ALOS 2.5 14:08:56 10° N 14:13:32 55° W 14:18:11 10° SSW
NOSS 0 Rocket 4.3 14:10:46 10° SW 14:16:42 46° WNW 14:22:36 10° N
MOZ.5/SAFIR/RUBIN 5/SL-8 4.0 14:17:06 10° SSE 14:21:50 70° ENE 14:26:29 10° N
Cosmos 1048 Rocket 4.4 14:17:53 10° SSW 14:23:04 47° WNW 14:28:07 10° N
Cosmos 1544 Rocket 4.0 14:19:21 10° N 14:23:40 61° E 14:28:06 10° SSE
Cosmos 1626 Rocket 3.7 14:22:21 10° S 14:26:55 82° E 14:31:23 10° NNE
USA 281 3.7 14:24:42 10° NE 14:31:15 69° ESE 14:37:51 10° SSW
SL-16 R/B 2.9 14:26:11 10° SSW 14:31:54 61° SE 14:37:33 10° NE
IRS-1D 3.7 14:26:54 10° N 14:32:16 73° WNW 14:37:43 10° SSW
Cosmos 2228 4.0 14:30:46 10° NNE 14:34:51 46° E 14:39:01 10° SSE
Cosmos 2084 Rocket 4.2 14:31:01 10° WSW 14:35:27 39° NW 14:39:51 10° NNE
Cosmos 2298 Rocket 4.5 14:34:40 10° N 14:39:56 62° ENE 14:45:14 10° SSE
SL-24 R/B - RUBIN 2 4.1 14:35:04 10° NW 14:40:26 70° SW 14:45:13 10° SE
Lacrosse 5 4.4 14:44:41 10° NE 14:46:04 11° ENE 14:47:28 10° ENE
PAYLOAD A 3.9 14:42:21 10° N 14:47:03 66° WNW 14:51:55 10° SSW
Cosmos 2297 Rocket 2.3 14:43:18 10° NW 14:48:59 77° WSW 14:54:45 10° SSE
Cosmos 1980 4.3 14:45:54 10° SW 14:51:05 37° WNW 14:56:14 10° N
ISS -2.6 14:48:34 10° W 14:51:24 24° NW 14:54:12 10° NNE
